Albion, NE

5:01 PM CDT on August 20, 2017 (GMT -0500)
Albion Municipal

Weather History for KBVN - February, 2012

Change the Weather History Date:

Monday, February 13, 2012

  Actual Average (KOFK) Record (KOFK)
Temperature  
Mean Temperature 26 °F -  
Max Temperature 30 °F 36 °F 70 °F (1934)
Min Temperature 20 °F 15 °F -29 °F (1905)
Degree Days  
Heating Degree Days 40    
Moisture  
Dew Point 23 °F    
Average Humidity 88    
Maximum Humidity 93    
Minimum Humidity 73    
Precipitation  
Precipitation 0.00 in - - ()
Sea Level Pressure  
Sea Level Pressure 29.75 in    
Wind  
Wind Speed 8 mph (SSW)    
Max Wind Speed 15 mph    
Max Gust Speed 20 mph    
Visibility 6 miles    
Events Snow    
Averages and records for this station are not official NWS values.
T = Trace of Precipitation, MM = Missing Value Source: NWS Daily Summary

Daily Weather History Graph

Daily Weather History Graph

Search for Another Location

Airport or City:

Trip Planner

Search our weather history database for the weather conditions in past years. The results will help you decide how hot, cold, wet, or windy it might be!

Date:

Astronomy

Feb. 13, 2012 Rise Set
Actual Time 7:31 AM CST 6:02 PM CST
Civil Twilight 7:02 AM CST 6:31 PM CST
Nautical Twilight 6:29 AM CST 7:03 PM CST
Astronomical Twilight 5:57 AM CST 7:36 PM CST
Moon 12:07 AM CST (2/13) 10:23 AM CST (2/13)
Length of Visible Light 11h 28m
Length of Day
10h 31m
Waning Gibbous, 61% of the Moon is Illuminated
Feb 13
Waning Gibbous
Feb 14
Last Quarter
Feb 21
New
Feb 29
First Quarter
Mar 8
Full

Hourly Weather History & Observations

Time (CST) Temp. Windchill Dew Point Humidity Pressure Visibility Wind Dir Wind Speed Gust Speed Precip Events Conditions
12:15 AM 23.9 °F 11.2 °F 16.5 °F 73% 29.92 in 7.0 mi South 15.0 mph 19.6 mph N/A Snow Light Snow
12:35 AM 23.0 °F 11.1 °F 18.7 °F 84% 29.92 in 3.0 mi South 12.7 mph 19.6 mph N/A Snow Light Snow
12:55 AM 22.6 °F 13.4 °F 19.4 °F 87% 29.91 in 1.5 mi South 8.1 mph - N/A Snow Light Snow
1:15 AM 22.5 °F 12.4 °F 19.4 °F 88% 29.90 in 0.8 mi South 9.2 mph - N/A Snow Snow
1:35 AM 22.1 °F 10.6 °F 19.4 °F 89% 29.89 in 1.0 mi South 11.5 mph - N/A Snow Snow
1:55 AM 22.3 °F 11.5 °F 19.4 °F 89% 29.88 in 3.0 mi South 10.4 mph - N/A Snow Light Snow
2:15 AM 22.3 °F 11.5 °F 19.2 °F 88% 29.87 in 3.0 mi SSE 10.4 mph - N/A Snow Light Snow
2:35 AM 22.5 °F 12.4 °F 19.2 °F 87% 29.86 in 10.0 mi SSE 9.2 mph - N/A Snow Light Snow
2:55 AM 22.6 °F 11.9 °F 19.2 °F 87% 29.85 in 10.0 mi SSE 10.4 mph - N/A   Overcast
3:15 AM 22.8 °F 11.5 °F 19.4 °F 87% 29.83 in 10.0 mi SSE 11.5 mph - N/A   Overcast
3:35 AM 22.8 °F 12.2 °F 19.4 °F 87% 29.82 in 10.0 mi SSE 10.4 mph - N/A   Overcast
3:55 AM 23.0 °F 13.1 °F 19.8 °F 87% 29.81 in 10.0 mi SSE 9.2 mph - N/A   Overcast
4:15 AM 23.0 °F 11.7 °F 19.9 °F 88% 29.81 in 10.0 mi SSE 11.5 mph - N/A   Overcast
4:35 AM 23.2 °F 12.6 °F 20.3 °F 89% 29.80 in 10.0 mi South 10.4 mph - N/A   Overcast
4:55 AM 23.2 °F 13.3 °F 20.7 °F 90% 29.79 in 5.0 mi South 9.2 mph - N/A   Overcast
5:15 AM 23.4 °F 13.5 °F 21.2 °F 91% 29.79 in 3.0 mi South 9.2 mph - N/A   Overcast
5:35 AM 23.5 °F 13.0 °F 21.6 °F 92% 29.79 in 3.0 mi South 10.4 mph - N/A Snow Light Snow
5:55 AM 23.9 °F 14.2 °F 21.9 °F 92% 29.79 in 3.0 mi South 9.2 mph - N/A Snow Light Snow
6:15 AM 24.3 °F 15.4 °F 22.1 °F 91% 29.78 in 3.0 mi South 8.1 mph - N/A   Overcast
6:35 AM 24.4 °F 14.2 °F 22.5 °F 92% 29.78 in 3.0 mi South 10.4 mph - N/A Snow Light Snow
6:55 AM 24.6 °F 15.1 °F 22.6 °F 92% 29.77 in 3.0 mi South 9.2 mph - N/A   Overcast
7:15 AM 24.6 °F 16.7 °F 22.8 °F 93% 29.77 in 3.0 mi South 6.9 mph - N/A   Overcast
7:35 AM 24.8 °F 16.9 °F 23.0 °F 93% 29.76 in 3.0 mi SSE 6.9 mph - N/A Snow Light Snow
7:55 AM 24.8 °F 16.1 °F 23.0 °F 93% 29.76 in 2.0 mi SSE 8.1 mph - N/A   Overcast
8:15 AM 25.3 °F 17.6 °F 23.4 °F 92% 29.76 in 2.0 mi South 6.9 mph - N/A Snow Light Snow
8:35 AM 25.5 °F 17.8 °F 23.5 °F 92% 29.75 in 3.0 mi South 6.9 mph - N/A Snow Light Snow
8:55 AM 25.7 °F 19.0 °F 23.9 °F 93% 29.74 in 3.0 mi South 5.8 mph - N/A   Overcast
9:15 AM 26.1 °F 18.4 °F 23.9 °F 92% 29.74 in 3.0 mi South 6.9 mph - N/A   Overcast
9:35 AM 26.4 °F 18.9 °F 24.4 °F 92% 29.74 in 3.0 mi South 6.9 mph - N/A   Overcast
9:55 AM 26.6 °F 19.1 °F 24.8 °F 93% 29.74 in 3.0 mi South 6.9 mph - N/A   Overcast
10:15 AM 26.6 °F 19.1 °F 24.8 °F 93% 29.73 in 2.5 mi South 6.9 mph - N/A   Overcast
10:35 AM 27.1 °F 19.7 °F 25.2 °F 92% 29.73 in 3.0 mi South 6.9 mph - N/A   Overcast
10:55 AM 27.3 °F 20.9 °F 25.3 °F 92% 29.73 in 4.0 mi SSW 5.8 mph - N/A   Overcast
11:15 AM 27.5 °F 20.2 °F 25.3 °F 92% 29.73 in 5.0 mi SSW 6.9 mph - N/A   Overcast
11:35 AM 27.9 °F 20.6 °F 25.3 °F 90% 29.72 in 5.0 mi SSW 6.9 mph - N/A   Overcast
11:55 AM 28.2 °F 22.0 °F 25.3 °F 89% 29.72 in 7.0 mi SSW 5.8 mph - N/A   Overcast
12:15 PM 28.9 °F 22.8 °F 25.5 °F 87% 29.71 in 7.0 mi SW 5.8 mph - N/A   Overcast
12:35 PM 29.3 °F 23.2 °F 25.3 °F 85% 29.70 in 10.0 mi SW 5.8 mph - N/A   Overcast
12:55 PM 29.7 °F 22.8 °F 25.0 °F 83% 29.70 in 7.0 mi West 6.9 mph - N/A   Overcast
1:15 PM 30.0 °F 25.2 °F 24.8 °F 81% 29.69 in 7.0 mi WSW 4.6 mph - N/A   Overcast
1:35 PM 30.0 °F 25.2 °F 25.2 °F 82% 29.69 in 4.0 mi WSW 4.6 mph - N/A   Haze
1:55 PM 30.0 °F 24.1 °F 24.4 °F 80% 29.68 in 5.0 mi West 5.8 mph - N/A   Haze
2:15 PM 30.0 °F 24.1 °F 25.0 °F 82% 29.68 in 3.0 mi WSW 5.8 mph - N/A Snow Light Snow
2:35 PM 29.8 °F 24.9 °F 25.9 °F 85% 29.68 in 1.0 mi WSW 4.6 mph - N/A Snow Light Snow
2:55 PM 29.5 °F 24.5 °F 26.2 °F 88% 29.68 in 1.0 mi WSW 4.6 mph - N/A Snow Light Snow
3:15 PM 29.8 °F 26.3 °F 25.9 °F 85% 29.68 in 2.0 mi West 3.5 mph - N/A Snow Light Snow
3:35 PM 30.2 °F 26.7 °F 25.7 °F 83% 29.68 in 7.0 mi WSW 3.5 mph - N/A   Overcast
3:55 PM 30.2 °F 26.7 °F 25.3 °F 82% 29.68 in 10.0 mi West 3.5 mph - N/A   Mostly Cloudy
4:15 PM 30.2 °F 26.7 °F 25.0 °F 81% 29.68 in 10.0 mi WSW 3.5 mph - N/A   Mostly Cloudy
4:35 PM 30.7 °F 27.3 °F 25.3 °F 80% 29.68 in 10.0 mi WSW 3.5 mph - N/A   Mostly Cloudy
4:55 PM 30.7 °F 27.3 °F 25.3 °F 80% 29.68 in 10.0 mi WSW 3.5 mph - N/A   Mostly Cloudy
5:15 PM 30.7 °F - 24.8 °F 79% 29.68 in 10.0 mi Calm Calm - N/A   Mostly Cloudy
5:35 PM 30.2 °F - 25.0 °F 81% 29.68 in 10.0 mi Calm Calm - N/A   Mostly Cloudy
5:55 PM 29.3 °F - 25.2 °F 85% 29.69 in 10.0 mi Calm Calm - N/A   Clear
6:15 PM 28.6 °F - 24.6 °F 85% 29.70 in 10.0 mi Calm Calm - N/A   Clear
6:35 PM 27.7 °F - 23.9 °F 86% 29.70 in 10.0 mi Calm Calm - N/A   Clear
6:55 PM 25.7 °F - 22.8 °F 89% 29.70 in 10.0 mi Calm Calm - N/A   Clear
7:15 PM 24.4 °F - 21.7 °F 89% 29.71 in 7.0 mi Calm Calm - N/A   Clear
7:35 PM 22.1 °F - 19.9 °F 91% 29.71 in 7.0 mi Calm Calm - N/A   Clear
7:55 PM 21.0 °F - 18.9 °F 91% 29.72 in 5.0 mi Calm Calm - N/A   Clear
8:15 PM 21.0 °F - 18.7 °F 91% 29.72 in 10.0 mi Calm Calm - N/A   Clear
8:35 PM 20.7 °F - 17.6 °F 88% 29.72 in 7.0 mi Calm Calm - N/A   Scattered Clouds
8:55 PM 21.0 °F - 18.3 °F 89% 29.72 in 10.0 mi Calm Calm - N/A   Clear
9:15 PM 21.2 °F - 18.1 °F 88% 29.72 in 10.0 mi Calm Calm - N/A   Clear
9:35 PM 15.8 °F - 13.1 °F 89% 29.72 in 5.0 mi Calm Calm - N/A   Clear
9:55 PM 14.7 °F - 12.0 °F 89% 29.72 in 5.0 mi Calm Calm - N/A   Clear
10:15 PM 15.6 °F - 13.1 °F 90% 29.73 in 5.0 mi Calm Calm - N/A   Clear
10:35 PM 15.4 °F - 12.7 °F 89% 29.74 in 5.0 mi Calm Calm - N/A   Clear
10:55 PM 15.6 °F 10.0 °F 13.3 °F 90% 29.73 in 5.0 mi NNW 3.5 mph - N/A   Clear
11:35 PM 17.8 °F - 14.9 °F 88% 29.72 in 7.0 mi Calm Calm - N/A   Clear
11:55 PM 18.0 °F - 15.4 °F 90% 29.72 in 7.0 mi Calm Calm - N/A   Clear